ASTRA 5B (39617 NORAD) Tracking and Keplerian Element Data

This shows tracking and keplerian element data for the satellite.

Feedback or suggestion? Click here.




ElementValue
Catalog39617
NameASTRA 5B
Epoch Orbit3966
Epoch Day34.68826542
Epoch Year2025
RAAN20.2795
Inclination0.0438
Eccentricity0.0004501
Argument of Perigee285.4082
Mean Anonmoly99.6604
Mean Motion1.00268952
Decay Rate1.41E-06
L11 39617U 14011B 25034.68826542 .00000141 00000+0 00000+0 0 9992
L22 39617 0.0438 20.2795 0004501 285.4082 99.6604 1.00268952 39668



Live tracking and technical data element details for ASTRA 5B (NORAD 39617). ASTRA 5B can be tracked NOW for your location showing map with azimuth and elevation plus other details from your city location.







IsCatalogInMostPopularTable: catalog: 39617, numindb: 585
Update: records affected: 1



GetName: 39617 ASTRA 5B

Hit Count: updated at: Thu, 15 May 2025 19:40:19 GMT